Regional Weather Roundup
Issued by NWS

Home | Current Version | Previous Version | Graphics & Text | Print | Product List | Glossary On
Versions: 1 2 3 4 5 6 7 8 9 10 11 12 13 14 15 16 17 18 19 20 21 22 23 24 25 26 27 28 29 30 31 32 33 34 35 36 37 38 39 40 41 42 43 44 45 46 47 48 49 50
000
ASUS43 KLMK 260710
RWRKY
KENTUCKY REGIONAL WEATHER ROUNDUP
NATIONAL WEATHER SERVICE LOUISVILLE KY
300 AM EDT SUN MAR 26 2017

NOTE "FAIR" INDICATES FEW OR NO CLOUDS BELOW 12,000 FEET
WITH NO SIGNIFICANT WEATHER AND/OR OBSTRUCTIONS TO VISIBILITY.

KYZ001>023-026-027-061>063-070>075-260800-
WESTERN AND SOUTH CENTRAL KENTUCKY

CITY           SKY/WX    TMP DP  RH WIND       PRES   REMARKS
PADUCAH        LGT RAIN  58  54  86 S9        29.90S
HENDERSON      CLOUDY    59  54  82 SE12      29.90S
OWENSBORO      CLOUDY    59  56  89 S12       29.93F
HOPKINSVILLE   MOCLDY    60  56  87 S7        29.93F
BOWLING GREEN  LGT RAIN  59  56  89 SE9       29.98S
GLASGOW        LGT RAIN N/A N/A N/A S7        29.99F
$$

KYZ024-025-028>034-038-045-046-053-260800-
NORTH CENTRAL KENTUCKY

CITY           SKY/WX    TMP DP  RH WIND       PRES   REMARKS
LOUISVILLE/SDF RAIN      60  56  86 S8        29.98F FOG
LOUISVILLE/LOU RAIN      59  56  89 S7        29.99F FOG
FORT KNOX      LGT RAIN  57  57 100 SE8       29.96F
$$

KYZ035>037-039>044-047>052-055>060-089>105-260800-
NORTHEAST KENTUCKY

CITY           SKY/WX    TMP DP  RH WIND       PRES   REMARKS
LEXINGTON      CLOUDY    61  54  77 SW7       30.02S
COVINGTON      CLOUDY    60  56  86 SW8       30.00S
FRANKFORT      CLOUDY    61  54  77 S13       30.00F
$$

KYZ054-064>069-076>088-106>120-260800-
SOUTHEAST KENTUCKY

CITY           SKY/WX    TMP DP  RH WIND       PRES   REMARKS
JACKSON        CLOUDY    64  45  49 S3        30.04F
LONDON         MOCLDY    62  46  55 SE5       30.03F
SOMERSET       LGT RAIN  59  54  82 W3        30.04F
MIDDLESBORO    CLOUDY    56  49  78 CALM      30.06F
MONTICELLO     LGT RAIN  59  55  87 W14G21    30.05S
$$




USA.gov is the U.S. government's official web portal to all federal, state and local government web resources and services.